Location: Krakow
(50.0830°N, 19.9170°E)
Time: 11:57:16
(UTC+01:00)

Altair - Visible Passes

Search period start: 15 March 2026 00:00
Search period end: 25 March 2026 00:00
Orbit: 1502 x 1682 km, 47.2° (Epoch: 14 March)

Date Brightness Start Highest point End Pass type
(mag) Time Alt. Az. Time Alt. Az. Time Alt. Az.
15 Mar 7.7 02:00:57 50° SE 02:00:57 50° SE 02:07:37 10° ESE visible
15 Mar 8.0 03:59:00 27° WSW 04:02:05 33° SW 04:10:03 10° SSE visible
15 Mar 8.6 19:16:37 10° SSE 19:21:47 17° SE 19:21:47 17° SE visible
15 Mar 8.6 21:16:16 10° SW 21:19:54 25° SSW 21:19:54 25° SSW visible
15 Mar9.723:39:29E23:39:29E23:18:01WSWvisible
16 Mar 8.2 01:37:32 36° SE 01:37:32 36° SE 01:42:27 10° ESE visible
16 Mar 7.8 03:35:36 34° SW 03:36:59 36° SW 03:45:06 10° SSE visible
16 Mar 8.6 18:52:07 10° SSE 18:57:05 16° SE 18:59:08 15° ESE visible
16 Mar 8.0 20:51:12 10° SW 20:57:15 37° S 20:57:15 37° S visible
16 Mar 9.3 22:54:34 10° WSW 22:55:22 13° WSW 22:55:22 13° WSW visible
17 Mar 8.7 01:14:17 24° ESE 01:14:17 24° ESE 01:17:16 10° ESE visible
17 Mar 7.8 03:12:21 38° SSW 03:12:21 38° SSW 03:20:07 10° SSE visible
17 Mar 8.8 05:12:02 10° WSW 05:14:22 11° WSW 05:16:43 10° SW visible
17 Mar 8.8 18:27:44 10° SSE 18:32:02 14° SE 18:36:17 10° E visible
17 Mar 7.7 20:26:09 10° SSW 20:34:30 42° SSE 20:34:30 42° SSE visible
17 Mar 8.7 22:29:22 10° WSW 22:32:37 25° WSW 22:32:37 25° WSW visible
18 Mar 9.2 00:51:11 14° ESE 00:51:11 14° ESE 00:52:05 10° ESE visible
18 Mar 8.0 02:49:16 34° S 02:49:16 34° S 02:55:07 10° SSE visible
18 Mar 8.7 04:47:21 12° WSW 04:49:20 13° SW 04:52:52 10° SSW visible
18 Mar 7.8 20:01:06 10° SSW 20:09:37 40° SE 20:11:38 36° ESE visible
18 Mar 8.0 22:04:09 10° WSW 22:09:44 41° WSW 22:09:44 41° WSW visible
19 Mar9.600:28:15ESE00:28:15ESE00:07:49Wvisible
19 Mar 8.5 02:26:21 25° SSE 02:26:21 25° SSE 02:30:06 10° SSE visible
19 Mar 8.7 04:24:27 14° SW 04:24:27 14° SW 04:28:39 10° SSW visible
19 Mar 7.9 19:36:06 10° SSW 19:44:29 37° SE 19:48:37 26° E visible
19 Mar 7.5 21:38:57 10° WSW 21:46:41 60° SSW 21:46:41 60° SSW visible
19 Mar 9.2 23:43:22 10° W 23:44:45 16° W 23:44:45 16° W visible
20 Mar 9.0 02:03:34 16° SSE 02:03:34 16° SSE 02:05:04 10° SE visible
20 Mar 8.8 04:01:41 14° SW 04:01:41 14° SW 04:04:16 10° SSW visible
20 Mar 8.0 19:11:06 10° SSW 19:19:22 35° SE 19:25:25 17° E visible
20 Mar 7.3 21:13:46 10° WSW 21:23:01 67° SSE 21:23:29 66° SSE visible
20 Mar 8.7 23:18:08 10° W 23:21:32 26° W 23:21:32 26° W visible
21 Mar9.501:40:54SE01:40:54SE01:19:36WNWvisible
21 Mar 9.0 03:39:00 12° SSW 03:39:00 12° SSW 03:39:44 10° SSW visible
21 Mar 8.1 18:46:08 10° SSW 18:54:15 33° SE 19:02:05 10° E visible
21 Mar 7.3 20:48:34 10° WSW 20:57:50 65° SSE 21:00:08 51° ESE visible
21 Mar 8.1 22:52:54 10° W 22:58:11 39° W 22:58:11 39° W visible
22 Mar 8.2 18:21:11 10° SSW 18:29:08 31° SE 18:36:52 10° E visible
22 Mar 7.4 20:23:23 10° WSW 20:32:39 63° SSE 20:36:38 37° E visible
22 Mar 7.6 22:27:39 10° W 22:34:41 55° WSW 22:34:41 55° WSW visible
23 Mar 9.3 00:32:15 10° W 00:32:43 12° W 00:32:43 12° W visible
23 Mar 7.5 19:58:12 10° SW 20:07:27 61° SSE 20:13:02 26° E visible
23 Mar 7.3 22:02:25 10° W 22:11:04 73° SW 22:11:04 73° SW visible
24 Mar 9.0 00:07:01 10° W 00:09:05 18° W 00:09:05 18° W visible
24 Mar 7.5 19:33:02 10° SW 19:42:17 59° SSE 19:49:20 18° E visible
24 Mar 7.2 21:37:11 10° W 21:46:32 76° S 21:47:21 72° SE visible
24 Mar 8.6 23:41:46 10° W 23:45:23 26° W 23:45:23 26° W visible
